When you browse on this site, cookies collect data to enhance your experience and personalize the content and advertising you see.
Visit our Privacy Policy to learn more. By continuing to use the site, you agree to this use of cookies and data.
  • In United Kingdom
  • List of Countries
  • For 7 days
  • Water Temperature
  • Satellite Maps
  • Weather Map
  • Weather Widgets
  • user-avatar
    Login

    Hourly Weather Natal

    Today, 19 November, Monday

    Time Temperature Precipitation Wind Pressure Humidity
    00:00 +28°C° 0 mm 7 mps 759 mmHg 70%
    01:00 +28°C° 0 mm 7 mps 758 mmHg 69%
    02:00 +28°C° 0.1 mm 6 mps 758 mmHg 70%
    03:00 +28°C° 0.1 mm 6 mps 758 mmHg 72%
    04:00 +28°C° 0 mm 6 mps 757 mmHg 71%
    05:00 +28°C° 0.1 mm 6 mps 758 mmHg 71%
    06:00 +28°C° 0.1 mm 6 mps 758 mmHg 71%
    07:00 +28°C° 0.1 mm 6 mps 758 mmHg 70%
    08:00 +30°C° 0 mm 7 mps 758 mmHg 62%
    09:00 +33°C° 0 mm 7 mps 759 mmHg 54%
    10:00 +35°C° 0 mm 7 mps 759 mmHg 47%
    11:00 +35°C° 0 mm 7 mps 759 mmHg 46%
    12:00 +35°C° 0 mm 7 mps 758 mmHg 44%
    13:00 +36°C° 0 mm 7 mps 758 mmHg 42%
    14:00 +35°C° 0 mm 7 mps 758 mmHg 44%
    15:00 +35°C° 0 mm 7 mps 758 mmHg 46%
    16:00 +35°C° 0 mm 7 mps 757 mmHg 47%
    17:00 +33°C° 0 mm 7 mps 757 mmHg 54%
    18:00 +32°C° 0 mm 7 mps 758 mmHg 61%
    19:00 +29°C° 0 mm 6 mps 758 mmHg 68%
    20:00 +29°C° 0 mm 6 mps 758 mmHg 71%
    21:00 +28°C° 0 mm 6 mps 759 mmHg 74%
    22:00 +28°C° 0 mm 6 mps 759 mmHg 77%
    23:00 +27°C° 0 mm 6 mps 759 mmHg 79%

    Tomorrow, 20 November, Tuesday

    Time Temperature Precipitation Wind Pressure Humidity
    00:00 +27°C° 0 mm 6 mps 759 mmHg 80%
    01:00 +27°C° 0 mm 6 mps 759 mmHg 81%
    02:00 +27°C° 0 mm 6 mps 758 mmHg 81%
    03:00 +27°C° 0 mm 6 mps 758 mmHg 81%
    04:00 +26°C° 0 mm 6 mps 758 mmHg 81%
    05:00 +27°C° 0 mm 6 mps 758 mmHg 78%
    06:00 +27°C° 0 mm 7 mps 759 mmHg 76%
    07:00 +28°C° 0 mm 7 mps 759 mmHg 73%
    08:00 +29°C° 0.1 mm 7 mps 759 mmHg 67%
    09:00 +32°C° 0.1 mm 8 mps 759 mmHg 60%
    10:00 +33°C° 0.1 mm 8 mps 760 mmHg 54%
    11:00 +33°C° 0 mm 8 mps 759 mmHg 53%
    12:00 +34°C° 0 mm 8 mps 759 mmHg 52%
    13:00 +34°C° 0 mm 7 mps 759 mmHg 51%
    14:00 +34°C° 0 mm 7 mps 758 mmHg 51%
    15:00 +34°C° 0 mm 7 mps 758 mmHg 52%
    16:00 +33°C° 0 mm 7 mps 757 mmHg 52%
    17:00 +32°C° 0 mm 7 mps 758 mmHg 59%
    18:00 +30°C° 0 mm 6 mps 758 mmHg 66%
    19:00 +28°C° 0 mm 6 mps 758 mmHg 73%
    20:00 +28°C° 0.1 mm 6 mps 759 mmHg 75%
    21:00 +28°C° 0.1 mm 6 mps 759 mmHg 78%
    22:00 +27°C° 0.1 mm 5 mps 760 mmHg 81%
    23:00 +27°C° 0.1 mm 6 mps 760 mmHg 82%

    Day after tomorrow, 21 November, Wednesday

    Time Temperature Precipitation Wind Pressure Humidity
    00:00 +27°C° 0.1 mm 6 mps 759 mmHg 83%
    01:00 +27°C° 0.1 mm 6 mps 759 mmHg 85%
    02:00 +26°C° 0.1 mm 5 mps 759 mmHg 86%
    03:00 +26°C° 0.1 mm 5 mps 759 mmHg 87%
    04:00 +26°C° 0.1 mm 5 mps 758 mmHg 88%
    05:00 +27°C° 0 mm 5 mps 758 mmHg 86%
    06:00 +27°C° 0 mm 6 mps 759 mmHg 84%
    07:00 +28°C° 0 mm 6 mps 759 mmHg 81%
    08:00 +30°C° 0 mm 6 mps 759 mmHg 71%
    09:00 +33°C° 0 mm 7 mps 760 mmHg 61%
    10:00 +35°C° 0 mm 7 mps 760 mmHg 52%
    11:00 +35°C° 0 mm 7 mps 760 mmHg 50%
    12:00 +36°C° 0 mm 7 mps 759 mmHg 49%
    13:00 +37°C° 0 mm 8 mps 759 mmHg 48%
    14:00 +35°C° 0 mm 8 mps 758 mmHg 50%
    15:00 +35°C° 0 mm 8 mps 758 mmHg 53%
    16:00 +34°C° 0 mm 8 mps 757 mmHg 55%
    17:00 +33°C° 0 mm 8 mps 758 mmHg 61%
    18:00 +30°C° 0 mm 7 mps 758 mmHg 67%
    19:00 +29°C° 0 mm 7 mps 758 mmHg 74%
    20:00 +28°C° 0.1 mm 7 mps 759 mmHg 76%
    21:00 +28°C° 0.1 mm 7 mps 759 mmHg 78%
    22:00 +28°C° 0.1 mm 7 mps 760 mmHg 80%
    23:00 +28°C° 0.5 mm 6 mps 759 mmHg 81%

    22 November, Thursday

    Time Temperature Precipitation Wind Pressure Humidity
    00:00 +27°C° 0.5 mm 6 mps 759 mmHg 82%
    01:00 +27°C° 0.5 mm 6 mps 759 mmHg 83%
    02:00 +27°C° 0.6 mm 6 mps 758 mmHg 84%
    03:00 +26°C° 0.6 mm 6 mps 758 mmHg 85%
    04:00 +26°C° 0.6 mm 6 mps 758 mmHg 86%
    05:00 +27°C° 0.4 mm 6 mps 758 mmHg 84%
    06:00 +27°C° 0.4 mm 6 mps 758 mmHg 82%
    07:00 +27°C° 0.4 mm 6 mps 759 mmHg 81%
    08:00 +29°C° 0.2 mm 6 mps 759 mmHg 72%
    09:00 +32°C° 0.2 mm 6 mps 759 mmHg 64%
    10:00 +34°C° 0.2 mm 7 mps 759 mmHg 56%
    11:00 +35°C° 0.1 mm 7 mps 759 mmHg 53%
    12:00 +35°C° 0.1 mm 7 mps 758 mmHg 51%
    13:00 +37°C° 0.1 mm 8 mps 758 mmHg 48%
    14:00 +35°C° 0 mm 8 mps 757 mmHg 50%
    15:00 +35°C° 0 mm 8 mps 757 mmHg 52%
    16:00 +34°C° 0 mm 8 mps 756 mmHg 54%
    17:00 +33°C° 0 mm 7 mps 757 mmHg 60%
    18:00 +30°C° 0 mm 7 mps 757 mmHg 65%
    19:00 +29°C° 0 mm 6 mps 758 mmHg 71%
    20:00 +29°C° 0.1 mm 6 mps 758 mmHg 73%
    21:00 +29°C° 0.1 mm 6 mps 759 mmHg 75%
    22:00 +28°C° 0.1 mm 6 mps 759 mmHg 77%
    23:00 +28°C° 0.1 mm 6 mps 759 mmHg 77%

    23 November, Friday

    Time Temperature Precipitation Wind Pressure Humidity
    00:00 +28°C° 0.1 mm 6 mps 758 mmHg 78%
    01:00 +28°C° 0.1 mm 5 mps 758 mmHg 79%
    02:00 +27°C° 0.1 mm 5 mps 758 mmHg 79%
    03:00 +27°C° 0.1 mm 5 mps 757 mmHg 80%
    04:00 +27°C° 0.1 mm 5 mps 757 mmHg 80%
    05:00 +27°C° 0.1 mm 6 mps 757 mmHg 78%
    06:00 +28°C° 0.1 mm 6 mps 758 mmHg 76%
    07:00 +28°C° 0.1 mm 6 mps 758 mmHg 74%
    08:00 +30°C° 0.2 mm 7 mps 758 mmHg 67%
    09:00 +33°C° 0.2 mm 7 mps 758 mmHg 60%
    10:00 +34°C° 0.2 mm 7 mps 759 mmHg 53%
    11:00 +35°C° 0.1 mm 7 mps 758 mmHg 51%
    12:00 +36°C° 0.1 mm 7 mps 758 mmHg 49%
    13:00 +37°C° 0.1 mm 8 mps 757 mmHg 46%
    14:00 +37°C° 0.1 mm 8 mps 757 mmHg 49%
    15:00 +35°C° 0.1 mm 8 mps 756 mmHg 51%
    16:00 +34°C° 0.1 mm 8 mps 756 mmHg 53%
    17:00 +33°C° 0.1 mm 7 mps 757 mmHg 60%
    18:00 +30°C° 0.1 mm 7 mps 757 mmHg 66%
    19:00 +29°C° 0.1 mm 6 mps 758 mmHg 73%
    20:00 +29°C° 0.4 mm 6 mps 758 mmHg 74%
    21:00 +28°C° 0.4 mm 6 mps 758 mmHg 76%
    22:00 +28°C° 0.4 mm 6 mps 759 mmHg 77%
    23:00 +28°C° 0.1 mm 6 mps 758 mmHg 78%

    24 November, Saturday

    Time Temperature Precipitation Wind Pressure Humidity
    00:00 +28°C° 0.1 mm 6 mps 758 mmHg 79%
    01:00 +27°C° 0.1 mm 6 mps 757 mmHg 80%
    02:00 +27°C° 0.3 mm 6 mps 757 mmHg 81%
    03:00 +27°C° 0.3 mm 6 mps 757 mmHg 82%
    04:00 +27°C° 0.3 mm 5 mps 757 mmHg 82%
    05:00 +27°C° 0.1 mm 6 mps 757 mmHg 80%
    06:00 +28°C° 0.1 mm 6 mps 758 mmHg 78%
    07:00 +28°C° 0.1 mm 6 mps 758 mmHg 76%
    08:00 +30°C° 0.1 mm 6 mps 758 mmHg 68%
    09:00 +33°C° 0.1 mm 7 mps 758 mmHg 60%
    10:00 +34°C° 0.1 mm 7 mps 759 mmHg 53%
    11:00 +35°C° 0 mm 7 mps 758 mmHg 50%
    12:00 +36°C° 0 mm 7 mps 758 mmHg 47%
    13:00 +38°C° 0 mm 7 mps 757 mmHg 45%
    14:00 +36°C° 0.1 mm 7 mps 757 mmHg 47%
    15:00 +35°C° 0.1 mm 7 mps 757 mmHg 49%
    16:00 +35°C° 0.1 mm 7 mps 756 mmHg 51%
    17:00 +33°C° 0.1 mm 7 mps 757 mmHg 58%
    18:00 +32°C° 0.1 mm 7 mps 757 mmHg 65%
    19:00 +29°C° 0.1 mm 6 mps 758 mmHg 72%
    20:00 +29°C° 0.1 mm 6 mps 758 mmHg 74%
    21:00 +29°C° 0.1 mm 6 mps 758 mmHg 77%
    22:00 +28°C° 0.1 mm 6 mps 758 mmHg 79%
    23:00 +28°C° 0.1 mm 6 mps 758 mmHg 80%
    Show more